www.pogodaiklimat.ru

Погода и климат >> Архив погоды >> Индия >> Nagpur


ПОГОДА в Nagpur

  • Прогноз погоды в Nagpur
  • Монитор погоды в Nagpur
  • Климат города

АРХИВ ПОГОДЫ в Nagpur

Время (UTC), дата Ветер
(напр.,м/с)
 
Видим.   Явления Облачность Т
(С)
Тd
(С)
f
(%)
Тe
(С)
Тes
(С)
Комфортность P
(гПа)
Po
(гПа)
Тmin
(С)
Tmax
(С)
R
(мм)
R24
(мм)
S
(см)
18 19.06 штиль 0 4000 м мгла 4/1 600 м
[Sc Ac trans]
+31.6 +20.2 51 +38 +38 очень
душно
1000.0 1000.0
21 19.06 ЮЗ 2 4000 м мгла 4/3 600 м
[Sc Ci fib]
+30.2 +20.6 56 +37 +37 очень
душно
999.4 999.0
00 20.06 Ю 2 4000 м мгла 3/0
[Ac trans]
+27.8 +21.2 67 +35 +35 очень
душно
1000.2 1000.0
03 20.06 СЗ 6 4000 м 4/0
[Ci fib]
+34.2 +22.7 51 +44 +47 опасность
перегрева
1001.4 1001.0 +26.9
06 20.06 СЗ 5 4000 м 6/4 600 м
[Sc diur, vesp Ci fib]
+38.0 +20.6 37 +44 +51 опасность
перегрева
1000.8 1001.0
09 20.06 З 5 4000 м 6/6 600 м
[Cb cap]
+39.0 +18.9 31 +43 +46 опасность
перегрева
998.0 998.0
12 20.06 СЗ 6 4000 м {дождь} 6/6 600 м
[Cb cap]
+38.8 +18.6 31 +43 +43 опасность
перегрева
995.8 996.0 +40.3 0.0
15 20.06 З 2 4000 м мгла 6/5 600 м
[Cb cap Ac trans]
+35.0 +19.3 40 +40 +40 очень
душно
998.3 998.0 0.0
18 20.06 З 3 4000 м мгла 5/4 600 м
[Cb cap Ac trans]
+33.0 +20.4 48 +40 +40 очень
душно
1000.2 1000.0 0.0
21 20.06 штиль 0 2000 м мгла {дождь} 5/4 600 м
[Sc Ac trans]
+26.6 +24.0 86 +37 +37 очень
душно
1000.1 1000.0 0.6
00 21.06 штиль 0 2000 м мгла 5/0
[Ac trans]
+26.4 +23.5 84 +36 +36 очень
душно
1001.2 1001.0 0.6
03 21.06 З 4 4000 м 3/0
[Ac trans Ci fib]
+33.0 +21.5 51 +41 +46 опасность
перегрева
1002.1 1002.0 +25.6 0.6
06 21.06 СЗ 5 4000 м 4/4 600 м
[Cu Sc]
+36.4 +21.1 41 +43 +50 опасность
перегрева
1001.4 1001.0
09 21.06 ЮВ 5 4000 м мгла 6/5 600 м
[Cb calv Ac trans]
+32.2 +22.3 56 +41 +45 опасность
перегрева
999.1 999.0
12 21.06 Ю 3 4000 м мгла 5/4 600 м
[Cu Sc Ac trans]
+36.6 +21.4 41 +44 +45 опасность
перегрева
997.2 997.0 +39.1
15 21.06 СВ 6 2000 м мгла 8/3 600 м
[Cb cap Ac trans]
+31.6 +22.2 58 +41 +41 опасность
перегрева
1000.5 1001.0
18 21.06 Ю 3 2000 м слабый дождь 8/5 600 м
[Cb cap Ac trans]
+27.0 +23.5 81 +37 +37 очень
душно
1001.9 1002.0 0.2
21 21.06 З 4 2000 м слабый дождь 9/5 600 м
[Cb cap As op]
+25.0 +22.9 88 +33 +33 очень
душно
1003.0 1003.0 1
00 22.06 З 3 2000 м мгла {дождь} 9/5 600 м
[St As op]
+24.4 +22.0 86 +31 +31 очень
душно
1001.8 1002.0 1
03 22.06 З 6 4000 м 5/3 600 м
[Sc Ac trans]
+29.6 +22.9 67 +39 +41 очень
душно
1003.3 1003.0 +24.7 1
06 22.06 З 5 4000 м 8/5 600 м
[Cu Sc Ac trans Ci fib]
+33.4 +22.7 54 +43 +47 опасность
перегрева
1002.5 1003.0
09 22.06 З 6 4000 м 8/6 600 м
[Cu Sc Ac trans]
+37.0 +22.6 44 +46 +48 опасность
перегрева
999.6 1000.0
12 22.06 З 4 4000 м 6/6 600 м
[Cb cap]
+38.0 +21.0 37 +44 +45 опасность
перегрева
997.5 998.0 +38.7
15 22.06 ЮВ 3 4000 м зарница {дождь} 9/5 600 м
[Cb cap Ac trans]
+28.4 +21.9 68 +37 +37 очень
душно
1002.3 1002.0 0.0
18 22.06 ЮВ 1 4000 м мгла {дождь} 5/4 600 м
[Sc Ac trans]
+26.8 +22.4 77 +35 +35 очень
душно
1003.3 1003.0 0.0
21 22.06 СЗ 3 4000 м мгла 4/3 600 м
[Sc Ac trans]
+26.0 +23.4 86 +35 +35 очень
душно
1002.3 1002.0 0.0
00 23.06 штиль 0 4000 м мгла 8/4 600 м
[Sc Ac trans Ci fib]
+25.0 +22.6 87 +33 +33 очень
душно
1003.0 1003.0 0.0
03 23.06 З 5 4000 м мгла 6/4 600 м
[Sc diur, vesp Ac trans]
+30.0 +22.7 65 +40 +42 очень
душно
1003.6 1004.0 +24.2 0.0
06 23.06 З 6 4000 м 6/4 600 м
[Sc diur, vesp Ac trans]
+34.6 +22.8 50 +44 +48 опасность
перегрева
1001.8 1002.0
09 23.06 СЗ 7 4000 м мгла 9/9 600 м
[Cb cap]
+38.0 +22.1 40 +46 +47 опасность
перегрева
998.4 998.0
12 23.06 штиль 0 2000 м гроза, ливневой дождь 9/8 600 м
[Cb cap Ac trans]
+24.2 +23.9 98 +33 +33 очень
душно
999.2 999.0 +38.3 11
15 23.06 ЮЗ 2 2000 м мгла {гроза, дождь} 9/5 600 м
[Sc Ac trans]
+26.2 +23.6 86 +36 +36 очень
душно
1001.2 1001.0 11
18 23.06 З 2 2000 м мгла {гроза, дождь} 6/4 600 м
[Sc Ac trans]
+26.8 +23.0 80 +36 +36 очень
душно
1002.3 1002.0 11
21 23.06 З 3 2000 м мгла 5/3 600 м
[Sc Ac trans]
+26.0 +23.4 86 +35 +35 очень
душно
999.9 1000.0 11
00 24.06 штиль 0 2000 м мгла 5/0
[Ac trans Ci fib]
+25.0 +23.2 90 +33 +33 очень
душно
1000.0 1000.0 11
03 24.06 З 5 4000 м ясно +31.2 +23.1 62 +41 +46 опасность
перегрева
1000.2 1000.0 +24.1 11
06 24.06 СЗ 5 4000 м 4/4 600 м
[Sc diur, vesp]
+35.2 +22.5 48 +44 +52 опасность
перегрева
998.9 999.0
09 24.06 Ю 5 4000 м мгла 8/8 600 м
[Cb cap]
+35.6 +22.9 48 +45 +47 опасность
перегрева
996.1 996.0
12 24.06 С 5 4000 м мгла 8/8 600 м
[Cb cap]
+36.4 +21.1 41 +43 +44 опасность
перегрева
994.5 995.0 +37.0
15 24.06 З 2 4000 м мгла 6/4 600 м
[Sc Ac trans]
+31.8 +23.1 60 +42 +42 опасность
перегрева
997.4 997.0
18 24.06 З 2 4000 м мгла 8/4 600 м
[Sc Ac trans]
+31.0 +22.2 60 +40 +40 очень
душно
998.1 998.0
21 24.06 З 3 4000 м мгла 6/3 600 м
[Sc Ac trans]
+29.2 +22.4 67 +38 +38 очень
душно
997.5 998.0
00 25.06 З 2 4000 м мгла 8/3 600 м
[Sc Ac trans]
+28.4 +22.5 70 +37 +37 очень
душно
997.4 997.0
03 25.06 СЗ 2 4000 м мгла 8/3 600 м
[Sc Ac trans Ci fib]
+31.2 +22.1 58 +40 +44 очень
душно
998.3 998.0 +27.7
06 25.06 СВ 1 4000 м мгла 9/4 600 м
[Cb cap Ac trans]
+32.0 +23.0 59 +42 +50 опасность
перегрева
998.5 999.0
09 25.06 Ю 3 4000 м мгла 9/4 600 м
[Cb cap Ac trans]
+33.4 +22.3 52 +42 +46 опасность
перегрева
996.2 996.0
12 25.06 СЗ 4 4000 м мгла 9/4 600 м
[Cu Sc Ac trans]
+31.8 +23.4 61 +43 +43 опасность
перегрева
995.6 996.0 +34.9
15 25.06 СВ 2 4000 м слабый дождь 9/5 600 м
[Cb calv As op]
+28.0 +24.2 80 +39 +39 очень
душно
998.7 999.0 0.0
18 25.06 штиль 0 4000 м мгла {дождь} 8/4 600 м
[Sc Ac trans]
+28.2 +23.9 78 +39 +39 очень
душно
999.1 999.0 0.0
21 25.06 штиль 0 4000 м мгла 8/4 600 м
[Sc Ac trans]
+27.6 +24.7 84 +39 +39 очень
душно
998.3 998.0 0.0
00 26.06 З 2 4000 м мгла 9/4 600 м
[Sc Ac trans]
+27.6 +24.7 84 +39 +39 очень
душно
998.0 998.0 0.0
03 26.06 штиль 0 2000 м мгла 9/4 600 м
[Sc Ac trans]
+28.8 +24.8 79 +41 +45 опасность
перегрева
1000.0 1000.0 +27.0 0.0
06 26.06 СЗ 2 2000 м мгла 9/5 600 м
[Sc Ac trans]
+31.8 +24.7 66 +45 +51 опасность
перегрева
998.7 999.0
09 26.06 СЗ 6 2000 м гроза с градом {дождь} 10/6 300 м
[Cb cap As op]
+24.4 +24.4 100 +34 +34 очень
душно
999.9 1000.0 25
12 26.06 ЮЗ 3 2000 м слабый дождь {гроза} 10/4 600 м
[Cb cap As op]
+24.6 +24.3 98 +34 +34 очень
душно
998.8 999.0 +33.0 39
15 26.06 штиль 0 4000 м мгла {морось} 9/4 600 м
[Cb cap Ac trans]
+24.6 +24.3 98 +34 +34 очень
душно
1000.4 1000.0 39

 

Местоположение метеостанции Nagpur (Maharashtra, Индия): широта 21.10 долгота 79.05 высота над уровнем моря 310 м.

В архиве по умолчанию представлена погода в Nagpur за последнюю неделю. Архивные данные за месяц целиком и за предыдущие месяцы, начиная с января 2011 года, Вы можете получить, выбрав интересующий диапазон дат из раскрывающегося списка и нажав кнопку "Ввод!".

Внимание! Время в таблицах - всемирное. Для получения местного времени необходимо прибавить поправку, которая в Nagpur равна 5.5 ч.

Смотрите также архив погоды в соседних городах и на ближайших метеорологических станциях:

Погода в Wardha (Maharashtra, Индия) (68 км)
Погода в Bramhapuri (Maharashtra, Индия) (100 км)
Погода в Chhindwara (Madhya Pradesh, Индия) (111 км)
Погода в Seoni (Madhya Pradesh, Индия) (121 км)
Погода в Yeotmal (Maharashtra, Индия) (122 км)
Погода в Gondia (Maharashtra, Индия) (126 км)
Погода в Chandrapur (Maharashtra, Индия) (128 км)
Погода в Amraoti (Maharashtra, Индия) (133 км)
Погода в Betul (Madhya Pradesh, Индия) (144 км)
Погода в Pachmarhi (Madhya Pradesh, Индия) (165 км)

Пояснения к столбцам:

Ветер - указаны скорость ветра в м/с - средняя за 10 мин, порывы в срок и между сроками (в фигурных скобках) и направление, откуда дует ветер: С - северный, СВ - северо-восточный, В - восточный, ЮВ - юго-восточный, Ю - южный, ЮЗ - юго-западный, З - западный, СЗ - северо-западный.
Видимость - горизонтальная дальность видимости в метрах или километрах. При видимости от 1 до 10 км при отсутствии осадков обычно наблюдается дымка, при ухудшении видимости до 1 км и менее - туман. В сухую погоду видимость может ухудшаться дымом, пылью или мглою.
Явления - указаны атмосферные явления, наблюдавшиеся в срок или в последний час перед сроком; фигурными скобками обозначены явления, наблюдавшиеся между сроками (за 1-3 часа до срока); квадратными скобками обозначены град или гололедные отложения с указанием их диаметра в мм.
Облачность - указаны через наклонную черту общая и нижняя облачность в баллах и высота нижней границы облаков в метрах; квадратными скобками обозначены формы облаков: Ci - перистые, Cs - перисто-слоистые, Cc - перисто-кучевые, Ac - высококучевые, As - высокослоистые, Sc - слоисто-кучевые, Ns - слоисто-дождевые, Cu - кучевые, Cb - кучево-дождевые. Подробнее классификацию облаков см. в Атласе облаков (PDF).
T - Температура воздуха - температура, измеренная на высоте 2 м над землей.
Td - Температура точки росы - температура, при понижении до которой содержащийся в воздухе водяной пар достигнет насыщения.
f - Относительная влажность воздуха - влажноcть воздуха, измеренная на высоте 2 м над землей.
Te - Эффективная температура - температура, которую ощущает одетый по сезону человек в тени. Характеристика душности погоды. При расчете учитывается влияние влажности воздуха и скорости ветра на теплоощущения человека.
Tes - Эффективная температура на солнце - температура, которую ощущает человек, с поправкой на солнечный нагрев. Характеристика знойности погоды. Зависит от высоты солнца над горизонтом, облачности и скорости ветра. Ночью, в пасмурную погоду, а также при ветре 12 м/с и более поправка равна нулю.
P - Атмосферное давление - приведенное к уровню моря атмосферное давление.
Po - Атмосферное давление - измеренное на уровне метеостанции атмосферное давление.
Tmin - Минимальная температура - минимум температуры воздуха на высоте 2 м над землей.
Tmax - Максимальная температура - максимум температуры воздуха на высоте 2 м над землей.
R - Количество осадков - Количество выпавших осадков за период времени, мм. При наведении курсора мыши на число - период времени, за который выпало указанное количество осадков.
R24 - Количество осадков - Количество выпавших осадков за 24 часа, мм.
S - Снежный покров - Высота снежного покрова, см. При наведении курсора мыши на число - состояние снежного покрова и степень покрытия местности в баллах.